Location: Wyoming Infrared Observatory
(41.0971°N, 105.9765°W)
Time: 04:50:06
(UTC-07:00)

Daily predictions for brighter satellites

Satellite Brightness Start Highest point End
(mag) Time Altitude Azimuth Time Altitude Azimuth Time Altitude Azimuth
Okean O Rocket 3.9 03:36:02 10° NE 03:38:29 22° ENE 03:38:29 22° ENE
Cosmos 1980 Rocket 2.8 03:54:42 53° E 03:54:42 53° E 03:59:56 10° NNE
Cosmos 1821 Rocket 4.0 03:58:36 72° ESE 03:58:43 72° E 04:04:56 10° NNE
ATLAS 5 CENTAUR R/B 3.6 03:59:39 22° SE 04:00:17 23° ESE 04:04:01 10° ENE
MOS 1-B 4.5 04:00:51 10° NNE 04:05:46 66° NNE 04:05:46 66° NNE
Cosmos 1535 Rocket 4.5 04:10:14 55° SSE 04:11:38 77° E 04:17:45 10° N
SJ 16-02 2.3 04:16:19 45° NE 04:16:19 45° NE 04:19:35 10° NNE
Cosmos 1697 Rocket 3.3 04:24:50 43° NNW 04:24:50 43° NNW 04:29:01 10° NNE
Hubble Space Telescope 3.3 04:28:54 12° SSE 04:28:54 12° SSE 04:29:40 10° SSE
Cosmos 1125 Rocket 3.6 04:26:34 53° S 04:27:41 71° ESE 04:32:52 10° NNE
Meteor 1-31 Rocket 3.9 04:24:10 10° NNE 04:26:52 41° NE 04:26:52 41° NE
Cosmos 1933 4.0 04:28:42 54° E 04:28:43 54° E 04:32:41 10° NNE
SL-16 R/B 3.6 04:27:00 10° S 04:32:06 36° ESE 04:37:13 10° NE
Cosmos 2239 Rocket 4.3 04:32:40 61° W 04:33:02 63° W 04:39:09 10° N
USA 215 3.7 04:27:09 10° SSE 04:32:24 40° SSW 04:32:24 40° SSW
BREEZE-M DEB (TANK) 3.7 04:42:18 24° SE 04:42:18 24° SE 04:43:13 10° SE
Cosmos 1605 Rocket 4.0 04:38:17 10° S 04:44:24 81° E 04:50:30 10° N
CZ-3 R/B 3.6 04:35:27 30° WSW 04:44:31 45° SSW 04:51:58 10° SE
CZ-2C R/B 4.3 04:44:41 10° SSE 04:49:15 57° ENE 04:53:46 10° N
Cosmos 1707 Rocket 4.0 04:54:20 44° NW 04:54:20 44° NW 04:57:54 10° N
ADEOS II 4.1 04:50:55 10° NNW 04:51:53 13° NNW 04:51:53 13° NNW
COSMOS 2455 2.7 04:50:58 11° NNW 04:56:55 81° WSW 05:02:55 10° SSE
CZ-4B R/B 3.1 04:53:44 10° N 04:59:09 65° WNW 05:03:38 16° SSW
CZ-4B R/B 4.0 04:55:28 10° N 04:59:49 59° WNW 05:00:37 50° WSW
Lacrosse 5 rocket 3.7 05:10:15 10° SSW 05:10:15 10° SSW 05:10:17 10° SSW
IRS-1C Rocket 4.0 05:04:01 10° N 05:09:15 66° WNW 05:14:27 10° SSW
Cosmos 2263 Rocket 2.8 05:04:32 10° NNW 05:10:08 57° ENE 05:15:43 10° SE
Meteor 2-10 Rocket 4.3 05:11:22 29° WNW 05:11:22 29° WNW 05:15:15 10° NNW
USA 116 4.1 05:08:06 10° S 05:12:43 73° W 05:17:51 10° NNW
Cosmos 405 Rocket 2.6 05:09:13 10° SSW 05:13:10 79° W 05:17:04 10° N
Cosmos 1269 Rocket 3.9 05:10:23 10° NNW 05:15:37 65° WSW 05:20:50 10° S
Okean O Rocket 2.4 05:12:11 10° N 05:15:57 30° WNW 05:15:57 30° WNW
Cosmos 1934 Rocket 4.5 05:13:14 18° SW 05:17:28 38° WNW 05:23:23 10° N
DELTA 2 R/B(2) 4.4 05:20:02 35° SSE 05:20:02 35° SSE 05:22:01 10° E
SKYMED 2 3.5 05:16:48 10° SSE 05:21:08 89° ENE 05:25:30 10° NNW
Meteor 1-14 Rocket 4.4 05:18:36 10° N 05:24:37 83° E 05:30:30 10° S
ISS -0.6 05:23:59 10° SE 05:24:57 11° SE 05:25:53 10° ESE
Cosmos 405 3.3 05:22:42 10° NNW 05:26:06 41° W 05:29:28 10° SSW
Cosmos 2322 Rocket 2.1 05:23:02 10° SSW 05:28:43 81° WNW 05:34:27 10° NNE
PAYLOAD A 3.8 05:24:54 10° N 05:29:44 81° WNW 05:34:42 10° SSW
NOAA 6 3.9 05:28:06 10° N 05:33:16 73° WNW 05:38:22 10° SSW
Radarsat Rocket 4.1 05:27:54 10° NNE 05:33:48 79° ESE 05:40:06 10° SSW
EO 1 Del DPAF 3.8 05:32:28 10° SSE 05:36:15 62° ENE 05:40:03 10° N
Cosmos 2360 Rocket 3.2 05:30:54 10° S 05:36:20 49° ESE 05:41:47 10° NE
Landsat 4 3.7 05:33:32 10° SSE 05:37:15 84° ENE 05:40:59 10° NNW
Cosmos 374 Rocket 4.3 05:34:00 10° NW 05:38:16 68° WSW 05:42:03 10° SSE
Cosmos 1461 3.8 05:34:23 10° SSW 05:38:34 54° ESE 05:42:59 10° NE
Cosmos 1980 Rocket 3.3 05:36:30 19° W 05:38:45 24° NW 05:43:17 10° N
Cosmos 1703 Rocket 4.2 05:35:04 10° S 05:39:27 60° E 05:43:53 10° NNE
Cosmos 2242 Rocket 4.0 05:36:10 10° SSW 05:40:28 40° WNW 05:44:49 10° N
ATLAS 5 CENTAUR R/B 2.2 05:41:15 16° WSW 05:44:35 41° NW 05:49:21 10° NNE
Meteor 1-25 Rocket 4.2 05:40:07 10° NNW 05:45:50 72° W 05:51:36 10° S
Lacrosse 4 Rocket 4.3 05:43:38 10° SSE 05:46:35 20° ESE 05:49:33 10° ENE
Aureole 2 Rocket 2.5 05:47:40 10° S 05:50:19 57° ESE 05:53:00 10° NNE
Cosmos 1441 Rocket 4.2 05:49:15 10° SW 05:52:39 27° WNW 05:56:06 10° NNW
Cosmos 1908 Rocket 3.5 05:49:20 10° NNW 05:53:43 75° W 05:58:02 10° S
SJ 16-02 3.1 05:53:22 13° WNW 05:54:14 13° WNW 05:56:27 10° NNW
Cosmos 1733 Rocket 3.9 05:52:47 10° NNW 05:56:32 28° W 06:00:17 10° SSW
IDEFIX/ARIANE 42P 2.9 05:53:13 10° N 05:58:09 43° WNW 06:03:02 10° SW
GENESIS II 4.2 05:54:46 10° SW 05:58:40 67° NW 06:02:35 10° NNE
Cosmos 1862 Rocket 4.4 05:56:19 10° SW 06:00:06 29° WNW 06:03:57 10° NNW
Cosmos 2251 Rocket 3.5 05:57:49 10° NNW 06:03:08 83° WSW 06:08:28 10° SSE
MTI 4.4 06:00:18 10° SSW 06:03:13 33° W 06:06:09 10° NNW
Meteor 1-4 Rocket 3.4 06:02:25 10° N 06:06:09 57° E 06:09:53 10° SSE
Hubble Space Telescope 3.2 06:06:46 10° SSW 06:07:53 11° SSW 06:09:00 10° S
Cosmos 1725 Rocket 4.4 06:02:04 10° S 06:08:19 73° E 06:14:39 10° N
Okean 1-7 3.0 06:04:48 10° S 06:09:07 89° W 06:13:30 10° N
COSMO-SKYMED 1 3.5 06:05:43 10° SSW 06:09:23 26° W 06:13:03 10° NW
COSMOS 2441 4.5 06:05:38 10° N 06:10:26 56° WNW 06:15:13 10° SSW
Cosmos 1602 3.9 06:07:34 10° N 06:11:25 79° E 06:15:14 10° S
COSMOS 2428 4.3 06:07:08 10° S 06:12:27 41° ESE 06:17:48 10° NE
Cosmos 2221 Rocket 3.7 06:10:36 10° S 06:15:03 86° E 06:19:31 10° N
Cosmos 2322 3.9 06:09:42 10° SSW 06:15:20 79° ESE 06:21:01 10° NNE
USA 229 DEB 3.9 06:08:07 10° NW 06:15:21 80° WSW 06:22:44 10° SSE
USA 229 3.9 06:08:14 10° NW 06:15:27 81° WSW 06:22:51 10° SSE
Cosmos 1782 3.2 06:11:43 10° SSW 06:15:32 40° WNW 06:19:22 10° N
SL-16 R/B 2.9 06:11:05 10° WSW 06:16:10 33° WNW 06:21:17 10° N
Okean-O 3.4 06:12:38 10° N 06:16:31 30° WNW 06:20:23 10° SW
CZ-2C R/B 3.0 06:15:23 10° N 06:20:06 38° WNW 06:24:51 10° SW
